PIMOHWEATHER Station Historical Data
Daily Summary for October 29, 2020 Units:  Metric    English   Both
Daily Weekly Monthly Yearly
  High: Low: Average:
Temperature: 31.0 °C 25.0 °C 27.9 °C
Dew Point: 25.0 °C 22.0 °C 23.7 °C
Humidity: 85% 66% 78%
Wind Speed: 28km/h 0km/h 9.7km/h
Wind Gust: 40km/h - -
Wind- - SSW
Pressure: 1017.0 hPa 1012.3 hPa -
Precipitation: 0.00 mm    
 
 
Tabular Data for October 29, 2020
Time Temperature Dew Point Pressure Wind Wind Speed Wind Gust Humidity Rainfall Rate (Hourly) solar
00:04 26.0 °C 23.0 °C 1017.0 hPa NE 18 km/h 24 km/h 81% 0.00 mm 0.00 W/m2
00:09 26.0 °C 23.0 °C 1016.8 hPa North 20 km/h 28 km/h 81% 0.00 mm 0.00 W/m2
00:14 26.0 °C 23.0 °C 1016.7 hPa NNE 15 km/h 20 km/h 81% 0.00 mm 0.00 W/m2
00:19 26.0 °C 23.0 °C 1016.5 hPa North 12 km/h 16 km/h 81% 0.00 mm 0.00 W/m2
00:24 26.0 °C 23.0 °C 1016.4 hPa North 12 km/h 20 km/h 81% 0.00 mm 0.00 W/m2
00:29 26.0 °C 23.0 °C 1016.3 hPa NNE 14 km/h 16 km/h 81% 0.00 mm 0.00 W/m2
00:34 26.0 °C 23.0 °C 1016.3 hPa North 15 km/h 20 km/h 81% 0.00 mm 0.00 W/m2
00:39 26.0 °C 22.0 °C 1016.4 hPa North 13 km/h 16 km/h 81% 0.00 mm 0.00 W/m2
00:44 26.0 °C 23.0 °C 1016.5 hPa North 23 km/h 24 km/h 82% 0.00 mm 0.00 W/m2
00:49 26.0 °C 23.0 °C 1016.3 hPa North 19 km/h 24 km/h 82% 0.00 mm 0.00 W/m2
00:54 26.0 °C 23.0 °C 1016.3 hPa North 23 km/h 28 km/h 82% 0.00 mm 0.00 W/m2
00:59 26.0 °C 23.0 °C 1016.3 hPa North 16 km/h 20 km/h 82% 0.00 mm 0.00 W/m2
01:04 26.0 °C 22.0 °C 1016.2 hPa North 17 km/h 24 km/h 82% 0.00 mm 0.00 W/m2
01:09 26.0 °C 23.0 °C 1016.1 hPa North 15 km/h 20 km/h 83% 0.00 mm 0.00 W/m2
01:14 26.0 °C 23.0 °C 1016.1 hPa North 14 km/h 20 km/h 83% 0.00 mm 0.00 W/m2
01:19 26.0 °C 22.0 °C 1015.9 hPa North 12 km/h 16 km/h 83% 0.00 mm 0.00 W/m2
01:24 26.0 °C 22.0 °C 1015.9 hPa North 12 km/h 16 km/h 83% 0.00 mm 0.00 W/m2
01:29 26.0 °C 22.0 °C 1015.8 hPa North 10 km/h 12 km/h 83% 0.00 mm 0.00 W/m2
01:34 26.0 °C 22.0 °C 1015.8 hPa North 15 km/h 20 km/h 83% 0.00 mm 0.00 W/m2
01:39 25.0 °C 22.0 °C 1015.7 hPa North 8 km/h 12 km/h 83% 0.00 mm 0.00 W/m2
01:44 26.0 °C 22.0 °C 1015.8 hPa North 11 km/h 16 km/h 83% 0.00 mm 0.00 W/m2
01:49 25.0 °C 22.0 °C 1015.6 hPa North 10 km/h 16 km/h 83% 0.00 mm 0.00 W/m2
01:54 25.0 °C 22.0 °C 1015.5 hPa North 12 km/h 16 km/h 83% 0.00 mm 0.00 W/m2
01:59 25.0 °C 22.0 °C 1015.6 hPa NNE 12 km/h 16 km/h 83% 0.00 mm 0.00 W/m2
02:04 25.0 °C 22.0 °C 1015.4 hPa North 15 km/h 20 km/h 83% 0.00 mm 0.00 W/m2
02:09 25.0 °C 22.0 °C 1015.4 hPa North 15 km/h 20 km/h 83% 0.00 mm 0.00 W/m2
02:14 25.0 °C 22.0 °C 1015.2 hPa North 10 km/h 16 km/h 83% 0.00 mm 0.00 W/m2
02:19 25.0 °C 22.0 °C 1015.3 hPa North 18 km/h 20 km/h 83% 0.00 mm 0.00 W/m2
02:24 25.0 °C 22.0 °C 1015.3 hPa North 8 km/h 12 km/h 83% 0.00 mm 0.00 W/m2
02:29 25.0 °C 22.0 °C 1015.2 hPa North 13 km/h 16 km/h 84% 0.00 mm 0.00 W/m2
02:34 25.0 °C 22.0 °C 1015.0 hPa North 14 km/h 16 km/h 84% 0.00 mm 0.00 W/m2
02:39 25.0 °C 22.0 °C 1014.9 hPa North 12 km/h 16 km/h 83% 0.00 mm 0.00 W/m2
02:44 25.0 °C 22.0 °C 1014.9 hPa North 9 km/h 12 km/h 83% 0.00 mm 0.00 W/m2
02:49 25.0 °C 22.0 °C 1014.8 hPa North 10 km/h 12 km/h 83% 0.00 mm 0.00 W/m2
02:54 25.0 °C 22.0 °C 1014.9 hPa North 7 km/h 8 km/h 83% 0.00 mm 0.00 W/m2
02:59 25.0 °C 22.0 °C 1014.8 hPa North 5 km/h 8 km/h 83% 0.00 mm 0.00 W/m2
03:04 25.0 °C 22.0 °C 1014.9 hPa NNE 4 km/h 4 km/h 83% 0.00 mm 0.00 W/m2
03:09 25.0 °C 22.0 °C 1014.6 hPa East 6 km/h 8 km/h 82% 0.00 mm 0.00 W/m2
03:14 25.0 °C 22.0 °C 1014.7 hPa NNE 6 km/h 8 km/h 82% 0.00 mm 0.00 W/m2
03:19 25.0 °C 22.0 °C 1014.6 hPa NE 6 km/h 8 km/h 82% 0.00 mm 0.00 W/m2
03:24 25.0 °C 22.0 °C 1014.7 hPa NNE 6 km/h 8 km/h 82% 0.00 mm 0.00 W/m2
03:29 25.0 °C 22.0 °C 1014.7 hPa NNE 3 km/h 4 km/h 82% 0.00 mm 0.00 W/m2
03:34 25.0 °C 22.0 °C 1014.6 hPa NE 4 km/h 4 km/h 82% 0.00 mm 0.00 W/m2
03:39 25.0 °C 22.0 °C 1014.7 hPa ENE 10 km/h 12 km/h 82% 0.00 mm 0.00 W/m2
03:44 25.0 °C 22.0 °C 1014.5 hPa NNE 5 km/h 12 km/h 82% 0.00 mm 0.00 W/m2
03:49 25.0 °C 22.0 °C 1014.5 hPa ENE 5 km/h 8 km/h 82% 0.00 mm 0.00 W/m2
03:54 25.0 °C 22.0 °C 1014.5 hPa NNE 4 km/h 4 km/h 82% 0.00 mm 0.00 W/m2
03:59 25.0 °C 22.0 °C 1014.5 hPa North 5 km/h 8 km/h 82% 0.00 mm 0.00 W/m2
04:04 25.0 °C 22.0 °C 1014.6 hPa North 4 km/h 8 km/h 82% 0.00 mm 0.00 W/m2
04:09 25.0 °C 22.0 °C 1014.6 hPa North 6 km/h 8 km/h 82% 0.00 mm 0.00 W/m2
04:14 25.0 °C 22.0 °C 1014.8 hPa NNE 4 km/h 4 km/h 82% 0.00 mm 0.00 W/m2
04:19 25.0 °C 22.0 °C 1014.8 hPa North 4 km/h 4 km/h 83% 0.00 mm 0.00 W/m2
04:24 25.0 °C 22.0 °C 1014.8 hPa North 7 km/h 8 km/h 83% 0.00 mm 0.00 W/m2
04:29 25.0 °C 22.0 °C 1014.8 hPa NNE 5 km/h 8 km/h 83% 0.00 mm 0.00 W/m2
04:34 25.0 °C 22.0 °C 1014.7 hPa NNE 6 km/h 8 km/h 83% 0.00 mm 0.00 W/m2
04:39 25.0 °C 22.0 °C 1014.5 hPa North 4 km/h 4 km/h 84% 0.00 mm 0.00 W/m2
04:44 25.0 °C 22.0 °C 1014.7 hPa NE 8 km/h 8 km/h 84% 0.00 mm 0.00 W/m2
04:49 25.0 °C 22.0 °C 1014.7 hPa ENE 5 km/h 8 km/h 84% 0.00 mm 0.00 W/m2
04:54 25.0 °C 22.0 °C 1014.7 hPa NE 4 km/h 4 km/h 84% 0.00 mm 0.00 W/m2
04:59 25.0 °C 22.0 °C 1014.7 hPa NNE 2 km/h 4 km/h 84% 0.00 mm 0.00 W/m2
05:04 25.0 °C 22.0 °C 1014.7 hPa Calm     85% 0.00 mm 0.00 W/m2
05:09 25.0 °C 22.0 °C 1014.7 hPa ENE 6 km/h 8 km/h 85% 0.00 mm 0.00 W/m2
05:14 25.0 °C 23.0 °C 1014.6 hPa NE 4 km/h 4 km/h 85% 0.00 mm 0.00 W/m2
05:19 25.0 °C 23.0 °C 1014.9 hPa East 8 km/h 12 km/h 85% 0.00 mm 0.00 W/m2
05:24 25.0 °C 23.0 °C 1014.9 hPa NE 8 km/h 12 km/h 85% 0.00 mm 0.00 W/m2
05:29 25.0 °C 23.0 °C 1014.8 hPa ENE 5 km/h 8 km/h 85% 0.00 mm 0.00 W/m2
05:34 25.0 °C 23.0 °C 1014.9 hPa Calm     85% 0.00 mm 0.00 W/m2
05:39 25.0 °C 23.0 °C 1014.9 hPa NE 8 km/h 8 km/h 85% 0.00 mm 0.00 W/m2
05:44 25.0 °C 23.0 °C 1015.1 hPa NE 4 km/h 4 km/h 85% 0.00 mm 0.00 W/m2
05:49 25.0 °C 23.0 °C 1015.1 hPa WNW 5 km/h 8 km/h 85% 0.00 mm 1.71 W/m2
05:54 25.0 °C 23.0 °C 1015.1 hPa West 4 km/h 8 km/h 85% 0.00 mm 4.28 W/m2
05:59 25.0 °C 23.0 °C 1015.2 hPa NW 1 km/h 4 km/h 85% 0.00 mm 9.54 W/m2
06:04 25.0 °C 23.0 °C 1015.4 hPa NE 5 km/h 8 km/h 85% 0.00 mm 15.53 W/m2
06:09 25.0 °C 23.0 °C 1015.3 hPa NNE 4 km/h 4 km/h 85% 0.00 mm 21.16 W/m2
06:14 26.0 °C 23.0 °C 1015.4 hPa WNW 3 km/h 4 km/h 85% 0.00 mm 27.65 W/m2
06:19 26.0 °C 23.0 °C 1015.5 hPa Calm   4 km/h 85% 0.00 mm 31.19 W/m2
06:24 26.0 °C 23.0 °C 1015.4 hPa NW 2 km/h 4 km/h 85% 0.00 mm 35.97 W/m2
06:29 26.0 °C 23.0 °C 1015.5 hPa North 1 km/h 4 km/h 85% 0.00 mm 40.24 W/m2
06:34 26.0 °C 23.0 °C 1015.7 hPa West 4 km/h 4 km/h 84% 0.00 mm 45.87 W/m2
06:39 26.0 °C 23.0 °C 1015.5 hPa NW 3 km/h 4 km/h 84% 0.00 mm 50.65 W/m2
06:44 26.0 °C 23.0 °C 1015.8 hPa NW 3 km/h 4 km/h 84% 0.00 mm 54.56 W/m2
06:49 26.0 °C 23.0 °C 1015.8 hPa WNW 1 km/h 4 km/h 83% 0.00 mm 60.19 W/m2
06:54 26.0 °C 23.0 °C 1015.8 hPa North 5 km/h 8 km/h 83% 0.00 mm 64.96 W/m2
06:59 26.0 °C 23.0 °C 1016.2 hPa North 2 km/h 4 km/h 83% 0.00 mm 70.22 W/m2
07:04 27.0 °C 23.0 °C 1016.2 hPa WSW 6 km/h 8 km/h 82% 0.00 mm 73.28 W/m2
07:09 27.0 °C 23.0 °C 1016.3 hPa NNE 4 km/h 4 km/h 82% 0.00 mm 77.19 W/m2
07:14 27.0 °C 23.0 °C 1016.3 hPa SW 7 km/h 8 km/h 81% 0.00 mm 81.97 W/m2
07:19 27.0 °C 24.0 °C 1016.3 hPa WSW 6 km/h 8 km/h 81% 0.00 mm 89.31 W/m2
07:24 27.0 °C 23.0 °C 1016.3 hPa East 9 km/h 12 km/h 80% 0.00 mm 94.56 W/m2
07:29 27.0 °C 24.0 °C 1016.3 hPa North 1 km/h 4 km/h 80% 0.00 mm 98.85 W/m2
07:34 27.0 °C 24.0 °C 1016.2 hPa WNW 3 km/h 4 km/h 80% 0.00 mm 101.41 W/m2
07:39 28.0 °C 24.0 °C 1016.2 hPa NE 2 km/h 4 km/h 79% 0.00 mm 109.73 W/m2
07:44 28.0 °C 24.0 °C 1016.2 hPa ENE 6 km/h 8 km/h 78% 0.00 mm 202.59 W/m2
07:49 28.0 °C 24.0 °C 1016.3 hPa North 8 km/h 12 km/h 78% 0.00 mm 219.83 W/m2
07:54 28.0 °C 24.0 °C 1016.5 hPa ENE 5 km/h 8 km/h 77% 0.00 mm 248.46 W/m2
07:59 28.0 °C 24.0 °C 1016.4 hPa WSW 5 km/h 8 km/h 76% 0.00 mm 261.92 W/m2
08:04 29.0 °C 24.0 °C 1016.4 hPa SE 5 km/h 8 km/h 76% 0.00 mm 241.98 W/m2
08:09 29.0 °C 24.0 °C 1016.4 hPa NE 9 km/h 12 km/h 74% 0.00 mm 245.52 W/m2
08:14 29.0 °C 24.0 °C 1016.4 hPa SW 8 km/h 8 km/h 74% 0.00 mm 300.58 W/m2
08:19 29.0 °C 24.0 °C 1016.4 hPa West 7 km/h 8 km/h 74% 0.00 mm 317.95 W/m2
08:24 29.0 °C 24.0 °C 1016.6 hPa SW 6 km/h 12 km/h 74% 0.00 mm 313.54 W/m2
08:29 29.0 °C 24.0 °C 1016.7 hPa SW 7 km/h 12 km/h 74% 0.00 mm 441.51 W/m2
08:34 29.0 °C 24.0 °C 1016.7 hPa SW 10 km/h 12 km/h 73% 0.00 mm 467.57 W/m2
08:39 29.0 °C 24.0 °C 1016.6 hPa SSW 11 km/h 16 km/h 73% 0.00 mm 508.43 W/m2
08:44 30.0 °C 24.0 °C 1016.5 hPa SW 19 km/h 24 km/h 75% 0.00 mm 426.83 W/m2
08:49 29.0 °C 24.0 °C 1016.6 hPa WNW 12 km/h 16 km/h 75% 0.00 mm 321.01 W/m2
08:54 29.0 °C 24.0 °C 1016.8 hPa West 8 km/h 12 km/h 75% 0.00 mm 270.24 W/m2
08:59 29.0 °C 24.0 °C 1016.8 hPa NNW 9 km/h 12 km/h 75% 0.00 mm 491.91 W/m2
09:04 29.0 °C 24.0 °C 1016.7 hPa West 13 km/h 16 km/h 75% 0.00 mm 509.65 W/m2
09:09 29.0 °C 24.0 °C 1016.6 hPa SW 13 km/h 16 km/h 74% 0.00 mm 541.82 W/m2
09:14 29.0 °C 24.0 °C 1016.7 hPa NNW 17 km/h 20 km/h 74% 0.00 mm 555.65 W/m2
09:19 30.0 °C 24.0 °C 1016.8 hPa NNW 8 km/h 12 km/h 73% 0.00 mm 306.20 W/m2
09:24 30.0 °C 24.0 °C 1016.7 hPa SW 18 km/h 20 km/h 74% 0.00 mm 487.14 W/m2
09:29 29.0 °C 24.0 °C 1016.7 hPa SW 18 km/h 20 km/h 75% 0.00 mm 459.74 W/m2
09:34 29.0 °C 24.0 °C 1016.6 hPa SW 20 km/h 28 km/h 74% 0.00 mm 475.89 W/m2
09:39 29.0 °C 24.0 °C 1016.6 hPa SSW 18 km/h 24 km/h 75% 0.00 mm 468.42 W/m2
09:44 29.0 °C 24.0 °C 1016.5 hPa SW 21 km/h 36 km/h 75% 0.00 mm 474.05 W/m2
09:49 29.0 °C 24.0 °C 1016.6 hPa SW 18 km/h 24 km/h 74% 0.00 mm 489.34 W/m2
09:54 29.0 °C 24.0 °C 1016.3 hPa West 15 km/h 20 km/h 74% 0.00 mm 605.56 W/m2
09:59 30.0 °C 24.0 °C 1016.2 hPa SW 15 km/h 20 km/h 73% 0.00 mm 649.85 W/m2
10:04 30.0 °C 24.0 °C 1016.4 hPa WNW 16 km/h 20 km/h 71% 0.00 mm 654.62 W/m2
10:09 30.0 °C 25.0 °C 1016.2 hPa NNW 21 km/h 28 km/h 73% 0.00 mm 143.99 W/m2
10:14 30.0 °C 24.0 °C 1016.3 hPa WSW 13 km/h 20 km/h 74% 0.00 mm 120.99 W/m2
10:19 29.0 °C 24.0 °C 1016.2 hPa NNW 20 km/h 24 km/h 76% 0.00 mm 132.24 W/m2
10:24 29.0 °C 24.0 °C 1016.1 hPa SW 16 km/h 24 km/h 76% 0.00 mm 260.69 W/m2
10:29 29.0 °C 24.0 °C 1016.2 hPa SW 15 km/h 20 km/h 75% 0.00 mm 484.45 W/m2
10:34 29.0 °C 24.0 °C 1016.2 hPa SW 25 km/h 32 km/h 75% 0.00 mm 238.56 W/m2
10:39 29.0 °C 24.0 °C 1015.9 hPa SSW 25 km/h 28 km/h 75% 0.00 mm 235.98 W/m2
10:44 29.0 °C 24.0 °C 1015.9 hPa SW 21 km/h 28 km/h 74% 0.00 mm 221.67 W/m2
10:49 29.0 °C 24.0 °C 1015.7 hPa SW 15 km/h 20 km/h 74% 0.00 mm 236.84 W/m2
10:54 30.0 °C 24.0 °C 1015.7 hPa SW 13 km/h 16 km/h 73% 0.00 mm 251.15 W/m2
10:59 30.0 °C 24.0 °C 1015.7 hPa WSW 13 km/h 20 km/h 71% 0.00 mm 271.10 W/m2
11:04 30.0 °C 24.0 °C 1015.5 hPa WSW 17 km/h 24 km/h 72% 0.00 mm 424.63 W/m2
11:09 30.0 °C 24.0 °C 1015.5 hPa WSW 15 km/h 20 km/h 71% 0.00 mm 783.44 W/m2
11:14 31.0 °C 24.0 °C 1015.4 hPa NNW 17 km/h 24 km/h 68% 0.00 mm 630.28 W/m2
11:19 31.0 °C 24.0 °C 1015.2 hPa SW 19 km/h 28 km/h 67% 0.00 mm 812.07 W/m2
11:24 31.0 °C 24.0 °C 1015.2 hPa WSW 13 km/h 20 km/h 67% 0.00 mm 841.55 W/m2
11:29 31.0 °C 24.0 °C 1015.2 hPa NW 14 km/h 20 km/h 66% 0.00 mm 762.64 W/m2
11:34 31.0 °C 24.0 °C 1015.0 hPa SW 19 km/h 24 km/h 66% 0.00 mm 823.81 W/m2
11:39 31.0 °C 24.0 °C 1015.1 hPa ENE 15 km/h 20 km/h 66% 0.00 mm 780.75 W/m2
11:44 31.0 °C 24.0 °C 1015.0 hPa NNW 19 km/h 28 km/h 69% 0.00 mm 172.98 W/m2
11:49 30.0 °C 24.0 °C 1015.1 hPa North 18 km/h 24 km/h 72% 0.00 mm 98.36 W/m2
11:54 29.0 °C 24.0 °C 1015.0 hPa NNW 19 km/h 28 km/h 73% 0.00 mm 159.53 W/m2
11:59 29.0 °C 24.0 °C 1015.1 hPa NNW 24 km/h 32 km/h 74% 0.00 mm 201.24 W/m2
12:04 29.0 °C 24.0 °C 1015.0 hPa North 17 km/h 24 km/h 74% 0.00 mm 248.46 W/m2
12:09 30.0 °C 24.0 °C 1014.9 hPa NW 22 km/h 24 km/h 74% 0.00 mm 626.85 W/m2
12:14 30.0 °C 25.0 °C 1014.9 hPa SW 12 km/h 24 km/h 73% 0.00 mm 820.26 W/m2
12:19 31.0 °C 25.0 °C 1014.8 hPa NW 16 km/h 28 km/h 72% 0.00 mm 719.58 W/m2
12:24 30.0 °C 25.0 °C 1014.7 hPa NW 20 km/h 28 km/h 71% 0.00 mm 786.87 W/m2
12:29 30.0 °C 25.0 °C 1014.7 hPa North 22 km/h 28 km/h 72% 0.00 mm 370.80 W/m2
12:34 30.0 °C 25.0 °C 1014.5 hPa North 23 km/h 32 km/h 74% 0.00 mm 215.07 W/m2
12:39 30.0 °C 25.0 °C 1014.5 hPa NW 28 km/h 32 km/h 74% 0.00 mm 346.09 W/m2
12:44 30.0 °C 25.0 °C 1014.4 hPa NNW 19 km/h 28 km/h 74% 0.00 mm 540.48 W/m2
12:49 30.0 °C 25.0 °C 1014.4 hPa North 19 km/h 28 km/h 75% 0.00 mm 278.93 W/m2
12:54 30.0 °C 25.0 °C 1014.2 hPa NW 26 km/h 36 km/h 75% 0.00 mm 224.24 W/m2
12:59 30.0 °C 25.0 °C 1014.3 hPa NNW 25 km/h 36 km/h 74% 0.00 mm 263.76 W/m2
13:04 30.0 °C 25.0 °C 1013.9 hPa NNW 21 km/h 32 km/h 74% 0.00 mm 747.35 W/m2
13:09 30.0 °C 25.0 °C 1013.8 hPa NNW 25 km/h 32 km/h 73% 0.00 mm 318.81 W/m2
13:14 30.0 °C 25.0 °C 1013.8 hPa NNW 25 km/h 32 km/h 72% 0.00 mm 476.25 W/m2
13:19 30.0 °C 25.0 °C 1013.8 hPa NNW 20 km/h 24 km/h 72% 0.00 mm 364.32 W/m2
13:24 31.0 °C 25.0 °C 1013.7 hPa NNW 22 km/h 24 km/h 71% 0.00 mm 619.38 W/m2
13:29 31.0 °C 25.0 °C 1013.6 hPa NNW 20 km/h 28 km/h 70% 0.00 mm 576.08 W/m2
13:34 31.0 °C 25.0 °C 1013.5 hPa South 12 km/h 20 km/h 70% 0.00 mm 520.05 W/m2
13:39 31.0 °C 25.0 °C 1013.4 hPa NNW 20 km/h 28 km/h 70% 0.00 mm 282.35 W/m2
13:44 31.0 °C 25.0 °C 1013.5 hPa NNW 26 km/h 40 km/h 71% 0.00 mm 240.76 W/m2
13:49 31.0 °C 25.0 °C 1013.4 hPa NNW 27 km/h 36 km/h 71% 0.00 mm 147.05 W/m2
13:54 30.0 °C 25.0 °C 1013.5 hPa NNW 27 km/h 36 km/h 71% 0.00 mm 268.52 W/m2
13:59 30.0 °C 24.0 °C 1013.4 hPa NNW 27 km/h 32 km/h 71% 0.00 mm 198.18 W/m2
14:04 30.0 °C 24.0 °C 1013.3 hPa North 21 km/h 28 km/h 71% 0.00 mm 133.10 W/m2
14:09 30.0 °C 25.0 °C 1013.3 hPa North 28 km/h 40 km/h 72% 0.00 mm 125.76 W/m2
14:14 30.0 °C 24.0 °C 1013.2 hPa North 21 km/h 28 km/h 73% 0.00 mm 105.33 W/m2
14:19 30.0 °C 24.0 °C 1013.2 hPa NNW 20 km/h 24 km/h 73% 0.00 mm 91.51 W/m2
14:24 30.0 °C 24.0 °C 1013.0 hPa NNW 19 km/h 24 km/h 74% 0.00 mm 89.31 W/m2
14:29 29.0 °C 24.0 °C 1013.0 hPa NNW 17 km/h 20 km/h 74% 0.00 mm 119.64 W/m2
14:34 30.0 °C 24.0 °C 1012.9 hPa NNW 12 km/h 16 km/h 74% 0.00 mm 128.82 W/m2
14:39 30.0 °C 24.0 °C 1013.0 hPa NNW 18 km/h 20 km/h 73% 0.00 mm 158.67 W/m2
14:44 30.0 °C 24.0 °C 1012.8 hPa NNW 17 km/h 20 km/h 73% 0.00 mm 174.81 W/m2
14:49 30.0 °C 24.0 °C 1012.8 hPa NNW 19 km/h 24 km/h 73% 0.00 mm 168.21 W/m2
14:54 30.0 °C 24.0 °C 1012.6 hPa NNW 18 km/h 20 km/h 72% 0.00 mm 128.33 W/m2
14:59 30.0 °C 25.0 °C 1012.6 hPa NNW 22 km/h 28 km/h 72% 0.00 mm 110.10 W/m2
15:04 30.0 °C 24.0 °C 1012.5 hPa NNW 16 km/h 20 km/h 72% 0.00 mm 106.68 W/m2
15:09 30.0 °C 25.0 °C 1012.6 hPa NNW 19 km/h 20 km/h 72% 0.00 mm 96.27 W/m2
15:14 31.0 °C 25.0 °C 1012.5 hPa NW 19 km/h 24 km/h 71% 0.00 mm 151.82 W/m2
15:19 31.0 °C 25.0 °C 1012.4 hPa NNW 19 km/h 28 km/h 70% 0.00 mm 158.30 W/m2
15:24 31.0 °C 25.0 °C 1012.3 hPa NNW 21 km/h 28 km/h 70% 0.00 mm 179.10 W/m2
15:29 31.0 °C 25.0 °C 1012.3 hPa NNW 18 km/h 24 km/h 70% 0.00 mm 208.22 W/m2
15:34 31.0 °C 25.0 °C 1012.3 hPa NNW 17 km/h 20 km/h 70% 0.00 mm 207.36 W/m2
15:39 31.0 °C 25.0 °C 1012.3 hPa NNW 19 km/h 20 km/h 70% 0.00 mm 70.22 W/m2
15:44 31.0 °C 24.0 °C 1012.4 hPa NNE 19 km/h 32 km/h 70% 0.00 mm 57.25 W/m2
15:49 31.0 °C 24.0 °C 1012.8 hPa NE 24 km/h 40 km/h 70% 0.00 mm 92.36 W/m2
15:54 30.0 °C 24.0 °C 1012.8 hPa ENE 23 km/h 32 km/h 75% 0.00 mm 94.07 W/m2
15:59 29.0 °C 24.0 °C 1012.9 hPa NE 21 km/h 24 km/h 76% 0.00 mm 68.87 W/m2
16:04 28.0 °C 24.0 °C 1013.2 hPa NE 12 km/h 12 km/h 76% 0.00 mm 45.87 W/m2
16:09 28.0 °C 24.0 °C 1013.3 hPa North 6 km/h 12 km/h 77% 0.00 mm 39.88 W/m2
16:14 28.0 °C 24.0 °C 1013.3 hPa SW 10 km/h 12 km/h 77% 0.00 mm 28.99 W/m2
16:19 28.0 °C 24.0 °C 1013.3 hPa ENE 5 km/h 8 km/h 76% 0.00 mm 38.17 W/m2
16:24 28.0 °C 24.0 °C 1013.1 hPa SW 8 km/h 12 km/h 76% 0.00 mm 35.97 W/m2
16:29 28.0 °C 24.0 °C 1013.4 hPa SW 5 km/h 8 km/h 76% 0.00 mm 19.94 W/m2
16:34 28.0 °C 24.0 °C 1013.4 hPa SW 1 km/h 4 km/h 76% 0.00 mm 9.05 W/m2
16:39 28.0 °C 24.0 °C 1013.5 hPa SW 5 km/h 8 km/h 76% 0.00 mm 9.91 W/m2
16:44 28.0 °C 24.0 °C 1013.5 hPa WSW 3 km/h 4 km/h 76% 0.00 mm 11.25 W/m2
16:49 28.0 °C 24.0 °C 1013.6 hPa WSW 4 km/h 4 km/h 76% 0.00 mm 12.11 W/m2
16:54 28.0 °C 24.0 °C 1013.5 hPa Calm   4 km/h 76% 0.00 mm 12.11 W/m2
16:59 28.0 °C 24.0 °C 1013.4 hPa West 4 km/h 4 km/h 76% 0.00 mm 11.62 W/m2
17:04 28.0 °C 24.0 °C 1013.4 hPa WNW 5 km/h 8 km/h 76% 0.00 mm 10.77 W/m2
17:08 28.0 °C 24.0 °C 1013.4 hPa NE 6 km/h 8 km/h 75% 0.00 mm 13.82 W/m2
17:14 29.0 °C 24.0 °C 1013.4 hPa North 4 km/h 4 km/h 76% 0.00 mm 11.25 W/m2
17:19 28.0 °C 24.0 °C 1013.5 hPa NE 4 km/h 4 km/h 76% 0.00 mm 5.63 W/m2
17:24 28.0 °C 24.0 °C 1013.5 hPa ENE 3 km/h 4 km/h 76% 0.00 mm 3.43 W/m2
17:29 28.0 °C 24.0 °C 1013.7 hPa ENE 1 km/h 4 km/h 76% 0.00 mm 1.71 W/m2
17:34 28.0 °C 24.0 °C 1013.7 hPa SSW 5 km/h 8 km/h 76% 0.00 mm 0.36 W/m2
17:39 28.0 °C 24.0 °C 1013.7 hPa WSW 1 km/h 4 km/h 76% 0.00 mm 0.00 W/m2
17:44 28.0 °C 24.0 °C 1013.8 hPa NE 4 km/h 4 km/h 76% 0.00 mm 0.00 W/m2
17:49 28.0 °C 24.0 °C 1013.6 hPa NE 4 km/h 8 km/h 76% 0.00 mm 0.00 W/m2
17:54 28.0 °C 24.0 °C 1013.6 hPa ENE 4 km/h 4 km/h 76% 0.00 mm 0.00 W/m2
17:59 28.0 °C 24.0 °C 1013.7 hPa ENE 4 km/h 4 km/h 76% 0.00 mm 0.00 W/m2
18:04 28.0 °C 24.0 °C 1013.8 hPa ENE 4 km/h 4 km/h 76% 0.00 mm 0.00 W/m2
18:09 28.0 °C 24.0 °C 1013.8 hPa ENE 2 km/h 4 km/h 76% 0.00 mm 0.00 W/m2
18:14 28.0 °C 24.0 °C 1013.8 hPa Calm   4 km/h 76% 0.00 mm 0.00 W/m2
18:19 29.0 °C 24.0 °C 1014.0 hPa ENE 7 km/h 8 km/h 76% 0.00 mm 0.00 W/m2
18:24 29.0 °C 24.0 °C 1014.1 hPa ENE 5 km/h 8 km/h 76% 0.00 mm 0.00 W/m2
18:29 29.0 °C 24.0 °C 1014.1 hPa North 4 km/h 4 km/h 76% 0.00 mm 0.00 W/m2
18:34 28.0 °C 24.0 °C 1014.3 hPa Calm     76% 0.00 mm 0.00 W/m2
18:39 28.0 °C 24.0 °C 1014.3 hPa NNE 4 km/h 4 km/h 76% 0.00 mm 0.00 W/m2
18:44 28.0 °C 24.0 °C 1014.3 hPa ENE 5 km/h 8 km/h 76% 0.00 mm 0.00 W/m2
18:49 28.0 °C 24.0 °C 1014.2 hPa East 4 km/h 4 km/h 76% 0.00 mm 0.00 W/m2
18:50 28.0 °C 24.0 °C 1014.0 hPa Calm     76% 0.00 mm 0.00 W/m2
19:04 28.0 °C 24.0 °C 1014.2 hPa Calm     77% 0.00 mm 0.00 W/m2
19:09 28.0 °C 24.0 °C 1014.4 hPa East 1 km/h 4 km/h 77% 0.00 mm 0.00 W/m2
19:14 28.0 °C 24.0 °C 1014.6 hPa Calm   4 km/h 77% 0.00 mm 0.00 W/m2
19:19 28.0 °C 24.0 °C 1014.5 hPa East 3 km/h 4 km/h 77% 0.00 mm 0.00 W/m2
19:24 28.0 °C 24.0 °C 1014.6 hPa East 3 km/h 4 km/h 77% 0.00 mm 0.00 W/m2
19:29 28.0 °C 24.0 °C 1014.7 hPa WSW 4 km/h 8 km/h 77% 0.00 mm 0.00 W/m2
19:34 28.0 °C 24.0 °C 1014.8 hPa South 4 km/h 8 km/h 76% 0.00 mm 0.00 W/m2
19:39 28.0 °C 24.0 °C 1014.8 hPa Calm     77% 0.00 mm 0.00 W/m2
19:44 28.0 °C 24.0 °C 1014.8 hPa SSW 1 km/h 4 km/h 77% 0.00 mm 0.00 W/m2
19:49 28.0 °C 24.0 °C 1014.9 hPa Calm   4 km/h 77% 0.00 mm 0.00 W/m2
19:54 28.0 °C 24.0 °C 1014.9 hPa SSW 3 km/h 4 km/h 78% 0.00 mm 0.00 W/m2
19:59 28.0 °C 24.0 °C 1014.9 hPa SW 4 km/h 4 km/h 78% 0.00 mm 0.00 W/m2
20:04 28.0 °C 24.0 °C 1015.0 hPa Calm   4 km/h 78% 0.00 mm 0.00 W/m2
20:09 28.0 °C 24.0 °C 1015.1 hPa Calm     79% 0.00 mm 0.00 W/m2
20:14 28.0 °C 24.0 °C 1015.1 hPa Calm     79% 0.00 mm 0.00 W/m2
20:19 28.0 °C 24.0 °C 1015.4 hPa Calm     79% 0.00 mm 0.00 W/m2
20:24 28.0 °C 24.0 °C 1015.2 hPa Calm     80% 0.00 mm 0.00 W/m2
20:29 28.0 °C 24.0 °C 1015.2 hPa Calm     80% 0.00 mm 0.00 W/m2
20:34 28.0 °C 24.0 °C 1015.1 hPa Calm     80% 0.00 mm 0.00 W/m2
20:39 28.0 °C 24.0 °C 1015.1 hPa Calm     80% 0.00 mm 0.00 W/m2
20:44 28.0 °C 24.0 °C 1015.2 hPa Calm     79% 0.00 mm 0.00 W/m2
20:49 28.0 °C 24.0 °C 1015.2 hPa SW 1 km/h 4 km/h 79% 0.00 mm 0.00 W/m2
20:54 28.0 °C 24.0 °C 1015.3 hPa NE 4 km/h 4 km/h 79% 0.00 mm 0.00 W/m2
20:59 28.0 °C 24.0 °C 1015.2 hPa Calm     79% 0.00 mm 0.00 W/m2
21:04 28.0 °C 24.0 °C 1015.2 hPa Calm   4 km/h 79% 0.00 mm 0.00 W/m2
21:09 28.0 °C 24.0 °C 1015.3 hPa Calm     79% 0.00 mm 0.00 W/m2
21:14 28.0 °C 24.0 °C 1015.4 hPa Calm     80% 0.00 mm 0.00 W/m2
21:19 28.0 °C 24.0 °C 1015.3 hPa Calm   4 km/h 80% 0.00 mm 0.00 W/m2
21:24 28.0 °C 24.0 °C 1015.5 hPa Calm     80% 0.00 mm 0.00 W/m2
21:29 28.0 °C 24.0 °C 1015.2 hPa Calm     80% 0.00 mm 0.00 W/m2
21:34 28.0 °C 24.0 °C 1015.3 hPa North 5 km/h 8 km/h 80% 0.00 mm 0.00 W/m2
21:39 28.0 °C 25.0 °C 1015.4 hPa North 7 km/h 8 km/h 82% 0.00 mm 0.00 W/m2
21:44 28.0 °C 25.0 °C 1015.3 hPa NNW 8 km/h 8 km/h 82% 0.00 mm 0.00 W/m2
21:49 28.0 °C 25.0 °C 1015.4 hPa NNW 6 km/h 8 km/h 83% 0.00 mm 0.00 W/m2
21:54 28.0 °C 25.0 °C 1015.4 hPa SW 14 km/h 16 km/h 83% 0.00 mm 0.00 W/m2
21:59 28.0 °C 25.0 °C 1015.3 hPa SW 8 km/h 8 km/h 83% 0.00 mm 0.00 W/m2
22:04 28.0 °C 25.0 °C 1015.2 hPa WSW 6 km/h 8 km/h 84% 0.00 mm 0.00 W/m2
22:09 28.0 °C 25.0 °C 1015.3 hPa SW 8 km/h 8 km/h 84% 0.00 mm 0.00 W/m2
22:14 28.0 °C 25.0 °C 1015.3 hPa SW 11 km/h 16 km/h 84% 0.00 mm 0.00 W/m2
22:19 28.0 °C 25.0 °C 1015.3 hPa SW 12 km/h 12 km/h 84% 0.00 mm 0.00 W/m2
22:24 28.0 °C 25.0 °C 1015.4 hPa West 3 km/h 4 km/h 84% 0.00 mm 0.00 W/m2
22:29 28.0 °C 25.0 °C 1015.4 hPa WSW 4 km/h 4 km/h 84% 0.00 mm 0.00 W/m2
22:34 28.0 °C 25.0 °C 1015.4 hPa SW 6 km/h 8 km/h 84% 0.00 mm 0.00 W/m2
22:39 28.0 °C 25.0 °C 1015.4 hPa SW 4 km/h 8 km/h 84% 0.00 mm 0.00 W/m2
22:44 28.0 °C 25.0 °C 1015.4 hPa SW 6 km/h 8 km/h 84% 0.00 mm 0.00 W/m2
22:49 28.0 °C 25.0 °C 1015.2 hPa SW 6 km/h 8 km/h 83% 0.00 mm 0.00 W/m2
22:54 28.0 °C 25.0 °C 1015.3 hPa NNW 6 km/h 8 km/h 84% 0.00 mm 0.00 W/m2
22:59 28.0 °C 25.0 °C 1015.2 hPa NNW 5 km/h 8 km/h 84% 0.00 mm 0.00 W/m2
23:04 28.0 °C 25.0 °C 1015.2 hPa NNW 5 km/h 8 km/h 84% 0.00 mm 0.00 W/m2
23:09 28.0 °C 25.0 °C 1015.3 hPa Calm   4 km/h 84% 0.00 mm 0.00 W/m2
23:14 28.0 °C 25.0 °C 1015.6 hPa NNW 2 km/h 4 km/h 83% 0.00 mm 0.00 W/m2
23:19 28.0 °C 25.0 °C 1015.6 hPa Calm     83% 0.00 mm 0.00 W/m2
23:24 28.0 °C 25.0 °C 1015.3 hPa Calm     83% 0.00 mm 0.00 W/m2
23:29 28.0 °C 25.0 °C 1015.3 hPa Calm     83% 0.00 mm 0.00 W/m2
23:34 28.0 °C 25.0 °C 1015.1 hPa Calm     83% 0.00 mm 0.00 W/m2
23:39 28.0 °C 25.0 °C 1015.3 hPa Calm     83% 0.00 mm 0.00 W/m2
23:44 28.0 °C 24.0 °C 1015.3 hPa NW 2 km/h 4 km/h 82% 0.00 mm 0.00 W/m2
23:49 28.0 °C 24.0 °C 1015.1 hPa NW 4 km/h 4 km/h 82% 0.00 mm 0.00 W/m2
23:54 28.0 °C 24.0 °C 1015.2 hPa NNW 3 km/h 4 km/h 82% 0.00 mm 0.00 W/m2
23:59 28.0 °C 24.0 °C 1015.3 hPa NNW 2 km/h 4 km/h 82% 0.00 mm 0.00 W/m2
PIMOHWEATHER Philippines
Compliments of Weather Underground - 2 mb